DEPWI EDAH-EDAH

Flight info

Callsign DEPWI
Flight time N/A
Altitude 3000
Route VFR
Aircraft DA40/L-SDE3FGHIRWY/LB1

Departure

Time 2026-05-06 17:23
Airport Heringsdorf Airport (EDAH)

Arrival

Time N/A
Airport Heringsdorf Airport (EDAH)
Time Latitude Longitude Altitude Speed Heading
2026-05-06 17:11 53.87752 14.14440 73 ft 0 kts 184°
2026-05-06 17:19 53.87750 14.14439 73 ft 1 kts 192°
2026-05-06 17:19 53.87767 14.14430 71 ft 7 kts 11°
2026-05-06 17:20 53.87806 14.14338 69 ft 15 kts 299°
2026-05-06 17:20 53.87870 14.14149 71 ft 21 kts 300°
2026-05-06 17:20 53.87943 14.13942 74 ft 13 kts 290°
2026-05-06 17:20 53.87981 14.13890 74 ft 0 kts 348°
2026-05-06 17:21 53.87999 14.13889 74 ft 6 kts 358°
2026-05-06 17:21 53.88062 14.13885 71 ft 12 kts
2026-05-06 17:21 53.88083 14.13954 73 ft 7 kts 104°
2026-05-06 17:21 53.88014 14.14345 90 ft 64 kts 99°
2026-05-06 17:22 53.87879 14.15188 256 ft 81 kts 97°
2026-05-06 17:22 53.87966 14.16069 353 ft 77 kts 59°
2026-05-06 17:22 53.88376 14.16622 408 ft 82 kts 12°
2026-05-06 17:22 53.88954 14.16626 511 ft 90 kts 11°
2026-05-06 17:23 53.89591 14.16649 592 ft 92 kts 11°
2026-05-06 17:23 53.90239 14.16667 701 ft 97 kts
2026-05-06 17:23 53.90929 14.16716 693 ft 103 kts
2026-05-06 17:23 53.91666 14.16576 633 ft 106 kts
2026-05-06 17:24 53.92381 14.16464 764 ft 99 kts
2026-05-06 17:24 53.93033 14.16328 911 ft 93 kts
2026-05-06 17:24 53.93672 14.16166 1002 ft 95 kts
2026-05-06 17:24 53.94354 14.16002 997 ft 102 kts
2026-05-06 17:25 53.95042 14.15803 1002 ft 100 kts
2026-05-06 17:25 53.95731 14.15567 1012 ft 102 kts
2026-05-06 17:25 53.96435 14.15358 1010 ft 103 kts
2026-05-06 17:25 53.97149 14.15139 1010 ft 105 kts
2026-05-06 17:26 53.97875 14.14930 1015 ft 106 kts
2026-05-06 17:26 53.98562 14.14375 1014 ft 119 kts 327°
2026-05-06 17:26 53.99093 14.13246 1010 ft 123 kts 317°
2026-05-06 17:26 53.99621 14.12093 1012 ft 123 kts 319°
2026-05-06 17:27 54.00155 14.10946 1014 ft 125 kts 319°
2026-05-06 17:27 54.00671 14.09799 1013 ft 125 kts 318°
2026-05-06 17:27 54.01198 14.08631 1012 ft 125 kts 319°
2026-05-06 17:27 54.01722 14.07458 1015 ft 125 kts 319°
2026-05-06 17:28 54.02330 14.06556 1009 ft 107 kts 359°
2026-05-06 17:28 54.02895 14.06949 1013 ft 87 kts 65°
2026-05-06 17:28 54.02728 14.07920 1014 ft 101 kts 127°
2026-05-06 17:28 54.02153 14.08650 1014 ft 103 kts 130°
2026-05-06 17:29 54.01601 14.09424 1015 ft 102 kts 127°
2026-05-06 17:29 54.01060 14.10217 1014 ft 103 kts 128°
2026-05-06 17:29 54.00518 14.11016 1012 ft 103 kts 127°
2026-05-06 17:29 53.99983 14.11814 1018 ft 102 kts 128°
2026-05-06 17:30 53.99449 14.12614 1018 ft 102 kts 127°
2026-05-06 17:30 53.98929 14.13438 1011 ft 102 kts 124°
2026-05-06 17:30 53.98418 14.14284 1009 ft 103 kts 124°
2026-05-06 17:30 53.97901 14.15134 1007 ft 104 kts 123°
2026-05-06 17:31 53.97381 14.15972 1012 ft 105 kts 124°
2026-05-06 17:31 53.96845 14.16817 1006 ft 105 kts 124°
2026-05-06 17:31 53.96313 14.17667 1006 ft 105 kts 124°
2026-05-06 17:31 53.95782 14.18525 1006 ft 105 kts 124°
2026-05-06 17:32 53.95251 14.19383 1005 ft 105 kts 124°
2026-05-06 17:32 53.94715 14.20232 1009 ft 105 kts 125°
2026-05-06 17:32 53.94184 14.21085 1004 ft 103 kts 120°
2026-05-06 17:32 53.94062 14.22113 1003 ft 87 kts 74°
2026-05-06 17:33 53.94155 14.23097 1088 ft 82 kts 78°
2026-05-06 17:33 53.94223 14.24050 1190 ft 80 kts 80°
2026-05-06 17:33 53.94277 14.24984 1292 ft 79 kts 80°
2026-05-06 17:33 53.94324 14.25913 1395 ft 79 kts 80°
2026-05-06 17:34 53.94367 14.26851 1498 ft 80 kts 81°
2026-05-06 17:34 53.94407 14.27793 1606 ft 80 kts 81°
2026-05-06 17:34 53.94445 14.28736 1711 ft 80 kts 82°
2026-05-06 17:34 53.94481 14.29672 1811 ft 79 kts 83°
2026-05-06 17:35 53.94516 14.30589 1914 ft 77 kts 82°
2026-05-06 17:35 53.94551 14.31501 2024 ft 78 kts 82°
2026-05-06 17:35 53.94585 14.32412 2137 ft 79 kts 82°
2026-05-06 17:36 53.94653 14.34263 2339 ft 78 kts 82°
2026-05-06 17:36 53.94687 14.35182 2442 ft 78 kts 81°
2026-05-06 17:36 53.94721 14.36098 2546 ft 78 kts 79°
2026-05-06 17:36 53.94754 14.37019 2650 ft 79 kts 79°
2026-05-06 17:37 53.94789 14.37951 2755 ft 80 kts 79°
2026-05-06 17:37 53.94822 14.38889 2859 ft 80 kts 79°
2026-05-06 17:37 53.94856 14.39825 2965 ft 79 kts 78°
2026-05-06 17:37 53.94892 14.40786 3004 ft 85 kts 78°
2026-05-06 17:38 53.94929 14.41816 3012 ft 89 kts 79°
2026-05-06 17:38 53.94967 14.42873 3013 ft 92 kts 80°
2026-05-06 17:38 53.95007 14.43971 3012 ft 94 kts 80°
2026-05-06 17:38 53.95046 14.45079 3013 ft 94 kts 80°
2026-05-06 17:39 53.95085 14.46194 3013 ft 95 kts 79°
2026-05-06 17:39 53.95125 14.47311 3012 ft 95 kts 79°
2026-05-06 17:39 53.95165 14.48429 3009 ft 95 kts 79°
2026-05-06 17:39 53.95204 14.49550 3009 ft 95 kts 79°
2026-05-06 17:40 53.95243 14.50656 3010 ft 94 kts 79°
2026-05-06 17:40 53.95281 14.51756 3008 ft 93 kts 79°
2026-05-06 17:40 53.95323 14.52864 3012 ft 97 kts 80°
2026-05-06 17:40 53.95361 14.53982 3015 ft 96 kts 80°
2026-05-06 17:41 53.95402 14.55130 3012 ft 98 kts 81°
2026-05-06 17:41 53.95441 14.56285 3012 ft 98 kts 80°
2026-05-06 17:41 53.95492 14.57433 3007 ft 96 kts 72°
2026-05-06 17:41 53.95925 14.58225 3008 ft 95 kts 36°
2026-05-06 17:42 53.96597 14.58313 3012 ft 105 kts 356°
2026-05-06 17:42 53.97310 14.58008 3013 ft 106 kts 358°
2026-05-06 17:42 53.98017 14.57767 3007 ft 101 kts 360°
2026-05-06 17:42 53.98713 14.57536 3012 ft 107 kts 359°
2026-05-06 17:43 53.99486 14.57291 3018 ft 117 kts 359°
2026-05-06 17:43 54.00308 14.57048 3017 ft 122 kts 359°
2026-05-06 17:43 54.01152 14.56803 3016 ft 124 kts 359°
2026-05-06 17:43 54.02004 14.56556 3017 ft 124 kts 360°
2026-05-06 17:44 54.02859 14.56300 3015 ft 125 kts 359°
2026-05-06 17:44 54.03676 14.55658 3015 ft 132 kts 341°
2026-05-06 17:44 54.04272 14.54377 3005 ft 154 kts 292°
2026-05-06 17:44 54.04081 14.52557 2998 ft 164 kts 237°
2026-05-06 17:45 54.03186 14.51554 2995 ft 147 kts 181°
2026-05-06 17:45 54.02347 14.51998 2996 ft 115 kts 120°
2026-05-06 17:45 54.02252 14.53095 2999 ft 93 kts 57°
2026-05-06 17:45 54.02844 14.53412 3000 ft 106 kts 352°
2026-05-06 17:46 54.03310 14.52324 2997 ft 132 kts 285°
2026-05-06 17:46 54.02972 14.50860 2996 ft 140 kts 219°
2026-05-06 17:46 54.02100 14.50308 3003 ft 133 kts 184°
2026-05-06 17:46 54.01193 14.49993 3007 ft 130 kts 173°
2026-05-06 17:47 54.00489 14.50580 3002 ft 105 kts 109°
2026-05-06 17:47 54.00570 14.51623 3008 ft 93 kts 44°
2026-05-06 17:47 54.01225 14.51640 3013 ft 113 kts 338°
2026-05-06 17:47 54.01567 14.50339 3008 ft 137 kts 272°
2026-05-06 17:48 54.01076 14.48975 3001 ft 139 kts 206°
2026-05-06 17:48 54.00211 14.48884 2998 ft 118 kts 140°
2026-05-06 17:48 53.99867 14.49880 3002 ft 94 kts 76°
2026-05-06 17:48 54.00325 14.50535 3011 ft 100 kts 10°
2026-05-06 17:49 54.00982 14.49948 3018 ft 115 kts 332°
2026-05-06 17:49 54.01623 14.49122 3016 ft 116 kts 335°
2026-05-06 17:49 54.02246 14.48239 3014 ft 123 kts 318°
2026-05-06 17:49 54.02368 14.46733 3001 ft 142 kts 253°
2026-05-06 17:50 54.01694 14.45619 2999 ft 135 kts 188°
2026-05-06 17:50 54.00876 14.45897 2892 ft 119 kts 130°
2026-05-06 17:50 54.00242 14.46866 2676 ft 126 kts 128°
2026-05-06 17:50 53.99582 14.47876 2457 ft 128 kts 128°
2026-05-06 17:51 53.98923 14.48901 2237 ft 128 kts 128°
2026-05-06 17:51 53.98266 14.49932 1999 ft 129 kts 128°
2026-05-06 17:51 53.97609 14.50966 1775 ft 129 kts 127°
2026-05-06 17:51 53.97251 14.52217 1533 ft 116 kts 83°
2026-05-06 17:52 53.97701 14.53268 1301 ft 119 kts 28°
2026-05-06 17:52 53.98550 14.53202 1073 ft 130 kts 355°
2026-05-06 17:52 53.99410 14.52822 1007 ft 120 kts 356°
2026-05-06 17:52 54.00188 14.52483 1004 ft 114 kts 356°